Track NAVSTAR 56 (USA 180) now! NAVSTAR 56 (USA 180) is classified as:
1 28474U 04045A 23150.66785406 -.00000076 00000-0 00000-0 0 9995 2 28474 55.4326 9.5563 0175371 286.4630 225.6781 1.99885105136099